Time,TemperatureF,DewpointF,PressureIn,WindDirection,WindDirectionDegrees,WindSpeedMPH,WindSpeedGustMPH,Humidity,HourlyPrecipIn,Conditions,Clouds,dailyrainin,SolarRadiationWatts/m^2,SoftwareType,DateUTC
2013-07-28 00:03:00,66.0,59.7,29.88,NW,314,2.0,7.0,80,0.00,,---,0.00,0.00,VWS V14.00,2013-07-28 04:03:00,
2013-07-28 00:04:00,66.0,59.7,29.88,NW,309,4.0,7.0,80,0.00,,---,0.00,0.00,VWS V14.00,2013-07-28 04:04:00,
2013-07-28 00:09:00,65.8,59.5,29.88,NW,313,1.0,5.0,80,0.00,,---,0.00,0.00,VWS V14.00,2013-07-28 04:09:00,
2013-07-28 00:13:00,65.6,59.6,29.88,NW,309,6.0,6.0,81,0.00,,---,0.00,0.00,VWS V14.00,2013-07-28 04:13:00,
2013-07-28 00:14:00,65.5,59.5,29.88,NW,317,2.0,6.0,81,0.00,,---,0.00,0.00,VWS V14.00,2013-07-28 04:14:00,
2013-07-28 00:19:00,65.2,59.2,29.88,NW,319,7.0,9.0,81,0.00,,---,0.00,0.00,VWS V14.00,2013-07-28 04:19:00,
2013-07-28 00:24:00,65.1,58.8,29.89,NW,321,5.0,8.0,80,0.00,,---,0.00,0.00,VWS V14.00,2013-07-28 04:24:00,
2013-07-28 00:29:00,65.0,58.3,29.89,NNW,329,1.0,11.0,79,0.00,,---,0.00,0.00,VWS V14.00,2013-07-28 04:29:00,
2013-07-28 00:34:00,65.0,58.0,29.89,NW,323,6.0,9.0,78,0.00,,---,0.00,0.00,VWS V14.00,2013-07-28 04:34:00,
2013-07-28 00:43:00,64.8,57.8,29.88,NW,311,1.0,8.0,78,0.00,,---,0.00,0.00,VWS V14.00,2013-07-28 04:43:00,
2013-07-28 00:48:00,64.7,57.7,29.89,NNW,338,1.0,8.0,78,0.00,,---,0.00,0.00,VWS V14.00,2013-07-28 04:48:00,
2013-07-28 00:53:00,64.5,57.5,29.89,NW,321,1.0,8.0,78,0.00,,---,0.00,0.00,VWS V14.00,2013-07-28 04:53:00,
2013-07-28 00:58:00,64.3,57.3,29.89,NNW,334,0.0,6.0,78,0.00,,---,0.00,0.00,VWS V14.00,2013-07-28 04:58:00,
2013-07-28 01:03:00,64.0,57.4,29.89,NW,319,2.0,5.0,79,0.00,,---,0.00,0.00,VWS V14.00,2013-07-28 05:03:00,
2013-07-28 01:08:00,63.8,57.2,29.88,NW,320,5.0,6.0,79,0.00,,---,0.00,0.00,VWS V14.00,2013-07-28 05:08:00,
2013-07-28 01:14:00,63.6,57.3,29.89,NW,319,3.0,6.0,80,0.00,,---,0.00,0.00,VWS V14.00,2013-07-28 05:14:00,
2013-07-28 01:19:00,63.4,57.1,29.89,NW,313,4.0,6.0,80,0.00,,---,0.00,0.00,VWS V14.00,2013-07-28 05:19:00,
2013-07-28 01:24:00,63.3,57.0,29.89,NW,321,3.0,5.0,80,0.00,,---,0.00,0.00,VWS V14.00,2013-07-28 05:24:00,
2013-07-28 01:29:00,63.2,56.9,29.89,NW,322,5.0,5.0,80,0.00,,---,0.00,0.00,VWS V14.00,2013-07-28 05:29:00,
2013-07-28 01:34:00,63.1,56.8,29.89,NW,316,4.0,6.0,80,0.00,,---,0.00,0.00,VWS V14.00,2013-07-28 05:34:00,
2013-07-28 01:39:00,63.1,56.8,29.89,NW,320,2.0,6.0,80,0.00,,---,0.00,0.00,VWS V14.00,2013-07-28 05:39:00,
2013-07-28 01:44:00,62.9,57.0,29.89,NNW,329,2.0,6.0,81,0.00,,---,0.00,0.00,VWS V14.00,2013-07-28 05:44:00,
2013-07-28 01:49:00,62.7,56.8,29.89,NNW,327,4.0,5.0,81,0.00,,---,0.00,0.00,VWS V14.00,2013-07-28 05:49:00,
2013-07-28 01:54:00,62.6,56.7,29.89,NW,321,4.0,6.0,81,0.00,,---,0.00,0.00,VWS V14.00,2013-07-28 05:54:00,
2013-07-28 01:59:00,62.6,56.7,29.89,NW,320,4.0,6.0,81,0.00,,---,0.00,0.00,VWS V14.00,2013-07-28 05:59:00,
2013-07-28 02:04:00,62.6,57.0,29.90,NNW,328,2.0,5.0,82,0.00,,---,0.00,0.00,VWS V14.00,2013-07-28 06:04:00,
2013-07-28 02:09:00,62.3,56.7,29.90,NNW,328,0.0,2.0,82,0.00,,---,0.00,0.00,VWS V14.00,2013-07-28 06:09:00,
2013-07-28 02:14:00,62.1,56.9,29.90,NNW,328,1.0,2.0,83,0.00,,---,0.00,0.00,VWS V14.00,2013-07-28 06:14:00,
2013-07-28 02:19:00,61.9,56.7,29.90,NW,325,2.0,4.0,83,0.00,,---,0.00,0.00,VWS V14.00,2013-07-28 06:19:00,
2013-07-28 02:24:00,61.7,56.8,29.89,NW,318,4.0,5.0,84,0.00,,---,0.00,0.00,VWS V14.00,2013-07-28 06:24:00,
2013-07-28 02:29:00,61.5,56.6,29.90,NW,317,3.0,5.0,84,0.00,,---,0.00,0.00,VWS V14.00,2013-07-28 06:29:00,
2013-07-28 02:34:00,61.4,56.5,29.90,NW,317,2.0,5.0,84,0.00,,---,0.00,0.00,VWS V14.00,2013-07-28 06:34:00,
2013-07-28 02:39:00,61.2,56.3,29.90,NW,317,3.0,4.0,84,0.00,,---,0.00,0.00,VWS V14.00,2013-07-28 06:39:00,
2013-07-28 02:44:00,61.0,56.5,29.90,NW,317,2.0,6.0,85,0.00,,---,0.00,0.00,VWS V14.00,2013-07-28 06:44:00,
2013-07-28 02:49:00,60.8,56.3,29.90,NW,317,4.0,4.0,85,0.00,,---,0.00,0.00,VWS V14.00,2013-07-28 06:49:00,
2013-07-28 02:54:00,60.6,56.1,29.89,NW,323,3.0,5.0,85,0.00,,---,0.00,0.00,VWS V14.00,2013-07-28 06:54:00,
2013-07-28 02:59:00,60.4,56.2,29.89,NW,317,0.0,4.0,86,0.00,,---,0.00,0.00,VWS V14.00,2013-07-28 06:59:00,
2013-07-28 03:04:00,60.2,56.0,29.90,WNW,301,1.0,4.0,86,0.00,,---,0.00,0.00,VWS V14.00,2013-07-28 07:04:00,
2013-07-28 03:09:00,60.0,55.8,29.90,NW,313,0.0,4.0,86,0.00,,---,0.00,0.00,VWS V14.00,2013-07-28 07:09:00,
2013-07-28 03:14:00,60.0,55.8,29.90,WNW,294,3.0,5.0,86,0.00,,---,0.00,0.00,VWS V14.00,2013-07-28 07:14:00,
2013-07-28 03:19:00,59.9,56.0,29.90,WNW,294,0.0,4.0,87,0.00,,---,0.00,0.00,VWS V14.00,2013-07-28 07:19:00,
2013-07-28 03:24:00,59.7,55.8,29.90,WNW,294,0.0,2.0,87,0.00,,---,0.00,0.00,VWS V14.00,2013-07-28 07:24:00,
2013-07-28 03:29:00,59.5,55.6,29.90,WNW,294,2.0,2.0,87,0.00,,---,0.00,0.00,VWS V14.00,2013-07-28 07:29:00,
2013-07-28 03:34:00,59.2,55.7,29.90,WNW,294,2.0,2.0,88,0.00,,---,0.00,0.00,VWS V14.00,2013-07-28 07:34:00,
2013-07-28 03:39:00,58.9,55.4,29.90,WNW,294,0.0,2.0,88,0.00,,---,0.00,0.00,VWS V14.00,2013-07-28 07:39:00,
2013-07-28 03:44:00,58.7,55.5,29.90,WNW,294,0.0,2.0,89,0.00,,---,0.00,0.00,VWS V14.00,2013-07-28 07:44:00,
2013-07-28 03:49:00,58.5,55.3,29.90,WNW,294,0.0,2.0,89,0.00,,---,0.00,0.00,VWS V14.00,2013-07-28 07:49:00,
2013-07-28 03:54:00,58.4,55.2,29.90,WNW,294,1.0,3.0,89,0.00,,---,0.00,0.00,VWS V14.00,2013-07-28 07:54:00,
2013-07-28 03:59:00,58.2,55.0,29.90,WNW,294,1.0,3.0,89,0.00,,---,0.00,0.00,VWS V14.00,2013-07-28 07:59:00,
2013-07-28 04:04:00,58.1,54.9,29.90,WNW,294,3.0,4.0,89,0.00,,---,0.00,0.00,VWS V14.00,2013-07-28 08:04:00,
2013-07-28 04:09:00,57.9,54.7,29.91,WNW,297,2.0,4.0,89,0.00,,---,0.00,0.00,VWS V14.00,2013-07-28 08:09:00,
2013-07-28 04:14:00,57.8,54.9,29.91,WNW,298,2.0,4.0,90,0.00,,---,0.00,0.00,VWS V14.00,2013-07-28 08:14:00,
2013-07-28 04:19:00,57.6,54.7,29.91,WNW,298,2.0,4.0,90,0.00,,---,0.00,0.00,VWS V14.00,2013-07-28 08:19:00,
2013-07-28 04:24:00,57.6,55.3,29.91,WNW,303,4.0,4.0,92,0.00,,---,0.00,0.00,VWS V14.00,2013-07-28 08:24:00,
2013-07-28 04:29:00,57.6,55.3,29.91,NW,319,4.0,4.0,92,0.00,,---,0.00,0.00,VWS V14.00,2013-07-28 08:29:00,
2013-07-28 04:34:00,57.6,55.3,29.91,NW,321,5.0,7.0,92,0.00,,---,0.00,0.00,VWS V14.00,2013-07-28 08:34:00,
2013-07-28 04:39:00,57.7,54.5,29.91,NW,321,5.0,5.0,89,0.00,,---,0.00,0.00,VWS V14.00,2013-07-28 08:39:00,
2013-07-28 04:44:00,57.7,54.5,29.91,NW,319,5.0,6.0,89,0.00,,---,0.00,0.00,VWS V14.00,2013-07-28 08:44:00,
2013-07-28 04:49:00,57.6,54.4,29.91,NW,319,4.0,4.0,89,0.00,,---,0.00,0.00,VWS V14.00,2013-07-28 08:49:00,
2013-07-28 04:54:00,57.5,54.3,29.91,NW,318,3.0,5.0,89,0.00,,---,0.00,0.00,VWS V14.00,2013-07-28 08:54:00,
2013-07-28 04:59:00,57.3,54.1,29.91,NW,319,2.0,3.0,89,0.00,,---,0.00,0.00,VWS V14.00,2013-07-28 08:59:00,
2013-07-28 05:04:00,57.1,54.2,29.91,NW,325,2.0,3.0,90,0.00,,---,0.00,0.00,VWS V14.00,2013-07-28 09:04:00,
2013-07-28 05:09:00,56.9,54.0,29.91,NNW,332,4.0,4.0,90,0.00,,---,0.00,0.00,VWS V14.00,2013-07-28 09:09:00,
2013-07-28 05:14:00,56.8,54.5,29.91,NNW,328,2.0,4.0,92,0.00,,---,0.00,0.00,VWS V14.00,2013-07-28 09:14:00,
2013-07-28 05:19:00,56.7,53.8,29.91,NNW,327,4.0,4.0,90,0.00,,---,0.00,0.00,VWS V14.00,2013-07-28 09:19:00,
2013-07-28 05:24:00,56.6,53.7,29.92,NNW,327,1.0,1.0,90,0.00,,---,0.00,0.00,VWS V14.00,2013-07-28 09:24:00,
2013-07-28 05:29:00,56.4,53.5,29.92,NNW,327,0.0,0.0,90,0.00,,---,0.00,0.00,VWS V14.00,2013-07-28 09:29:00,
2013-07-28 05:34:00,56.1,53.2,29.92,NNW,327,0.0,0.0,90,0.00,,---,0.00,0.00,VWS V14.00,2013-07-28 09:34:00,
2013-07-28 05:39:00,55.9,53.0,29.92,NNW,327,1.0,1.0,90,0.00,,---,0.00,0.00,VWS V14.00,2013-07-28 09:39:00,
2013-07-28 05:44:00,55.7,52.8,29.93,NNW,327,0.0,2.0,90,0.00,,---,0.00,0.00,VWS V14.00,2013-07-28 09:44:00,
2013-07-28 05:49:00,55.4,52.5,29.93,NNW,327,0.0,0.0,90,0.00,,---,0.00,0.00,VWS V14.00,2013-07-28 09:49:00,
2013-07-28 05:54:00,55.2,52.6,29.93,NNW,327,0.0,0.0,91,0.00,,---,0.00,0.00,VWS V14.00,2013-07-28 09:54:00,
2013-07-28 05:59:00,55.1,52.5,29.93,NNW,327,0.0,0.0,91,0.00,,---,0.00,0.00,VWS V14.00,2013-07-28 09:59:00,
2013-07-28 06:04:00,55.1,52.5,29.93,NNW,327,0.0,0.0,91,0.00,,---,0.00,0.00,VWS V14.00,2013-07-28 10:04:00,
2013-07-28 06:09:00,55.0,52.1,29.94,NNW,327,0.0,0.0,90,0.00,,---,0.00,0.00,VWS V14.00,2013-07-28 10:09:00,
2013-07-28 06:14:00,55.0,52.1,29.94,NW,324,1.0,2.0,90,0.00,,---,0.00,0.00,VWS V14.00,2013-07-28 10:14:00,
2013-07-28 06:19:00,55.0,52.1,29.94,NW,324,0.0,0.0,90,0.00,,---,0.00,0.00,VWS V14.00,2013-07-28 10:19:00,
2013-07-28 06:24:00,54.9,52.0,29.94,NW,324,2.0,2.0,90,0.00,,---,0.00,0.00,VWS V14.00,2013-07-28 10:24:00,
2013-07-28 06:29:00,54.8,51.9,29.94,NW,319,4.0,4.0,90,0.00,,---,0.00,0.00,VWS V14.00,2013-07-28 10:29:00,
2013-07-28 06:34:00,54.7,52.1,29.94,NW,319,2.0,2.0,91,0.00,,---,0.00,0.00,VWS V14.00,2013-07-28 10:34:00,
2013-07-28 06:39:00,54.6,52.0,29.95,NW,319,0.0,0.0,91,0.00,,---,0.00,5.00,VWS V14.00,2013-07-28 10:39:00,
2013-07-28 06:44:00,54.6,52.0,29.95,NW,319,1.0,2.0,91,0.00,,---,0.00,7.00,VWS V14.00,2013-07-28 10:44:00,
2013-07-28 06:49:00,54.5,51.9,29.95,WNW,288,0.0,2.0,91,0.00,,---,0.00,9.00,VWS V14.00,2013-07-28 10:49:00,
2013-07-28 06:54:00,54.4,51.5,29.96,WNW,288,1.0,1.0,90,0.00,,---,0.00,12.00,VWS V14.00,2013-07-28 10:54:00,
2013-07-28 06:59:00,54.3,51.4,29.96,WNW,288,2.0,2.0,90,0.00,,---,0.00,14.00,VWS V14.00,2013-07-28 10:59:00,
2013-07-28 07:04:00,54.3,51.4,29.96,WNW,288,2.0,2.0,90,0.00,,---,0.00,14.00,VWS V14.00,2013-07-28 11:04:00,
2013-07-28 07:09:00,54.3,51.4,29.96,NW,312,2.0,3.0,90,0.00,,---,0.00,19.00,VWS V14.00,2013-07-28 11:09:00,
2013-07-28 07:14:00,54.2,51.3,29.96,NW,311,2.0,3.0,90,0.00,,---,0.00,21.00,VWS V14.00,2013-07-28 11:14:00,
2013-07-28 07:19:00,54.3,51.4,29.97,NW,311,2.0,3.0,90,0.00,,---,0.00,21.00,VWS V14.00,2013-07-28 11:19:00,
2013-07-28 07:24:00,54.4,51.5,29.97,NW,304,2.0,2.0,90,0.00,,---,0.00,23.00,VWS V14.00,2013-07-28 11:24:00,
2013-07-28 07:29:00,54.5,51.9,29.97,NW,317,6.0,6.0,91,0.00,,---,0.00,63.00,VWS V14.00,2013-07-28 11:29:00,
2013-07-28 07:34:00,54.7,52.1,29.97,WNW,298,3.0,4.0,91,0.00,,---,0.00,104.00,VWS V14.00,2013-07-28 11:34:00,
2013-07-28 07:39:00,55.0,52.4,29.97,WNW,293,5.0,5.0,91,0.00,,---,0.00,121.00,VWS V14.00,2013-07-28 11:39:00,
2013-07-28 07:44:00,55.3,52.7,29.98,WNW,296,2.0,2.0,91,0.00,,---,0.00,139.00,VWS V14.00,2013-07-28 11:44:00,
2013-07-28 07:49:00,55.5,52.9,29.98,WNW,282,0.0,1.0,91,0.00,,---,0.00,153.00,VWS V14.00,2013-07-28 11:49:00,
2013-07-28 07:54:00,55.8,53.2,29.98,WNW,294,5.0,5.0,91,0.00,,---,0.00,169.00,VWS V14.00,2013-07-28 11:54:00,
2013-07-28 07:59:00,56.1,53.2,29.98,NW,311,5.0,5.0,90,0.00,,---,0.00,183.00,VWS V14.00,2013-07-28 11:59:00,
2013-07-28 08:04:00,56.3,53.4,29.98,WNW,286,3.0,6.0,90,0.00,,---,0.00,193.00,VWS V14.00,2013-07-28 12:04:00,
2013-07-28 08:09:00,56.6,53.4,29.98,NW,313,5.0,6.0,89,0.00,,---,0.00,211.00,VWS V14.00,2013-07-28 12:09:00,
2013-07-28 08:14:00,56.7,53.5,29.98,WNW,300,5.0,6.0,89,0.00,,---,0.00,227.00,VWS V14.00,2013-07-28 12:14:00,
2013-07-28 08:19:00,57.0,53.8,29.99,WNW,300,4.0,6.0,89,0.00,,---,0.00,244.00,VWS V14.00,2013-07-28 12:19:00,
2013-07-28 08:24:00,57.3,53.8,29.99,NW,317,5.0,5.0,88,0.00,,---,0.00,262.00,VWS V14.00,2013-07-28 12:24:00,
2013-07-28 08:29:00,57.6,53.8,29.99,NW,310,4.0,5.0,87,0.00,,---,0.00,278.00,VWS V14.00,2013-07-28 12:29:00,
2013-07-28 08:34:00,57.9,53.7,29.99,WNW,302,6.0,6.0,86,0.00,,---,0.00,295.00,VWS V14.00,2013-07-28 12:34:00,
2013-07-28 08:39:00,58.2,54.0,29.99,NW,310,0.0,5.0,86,0.00,,---,0.00,309.00,VWS V14.00,2013-07-28 12:39:00,
2013-07-28 08:44:00,58.6,54.1,29.99,NW,307,3.0,4.0,85,0.00,,---,0.00,327.00,VWS V14.00,2013-07-28 12:44:00,
2013-07-28 08:49:00,58.9,54.1,29.99,NW,310,0.0,1.0,84,0.00,,---,0.00,345.00,VWS V14.00,2013-07-28 12:49:00,
2013-07-28 08:54:00,59.3,54.2,29.99,NW,319,2.0,5.0,83,0.00,,---,0.00,362.00,VWS V14.00,2013-07-28 12:54:00,
2013-07-28 08:59:00,59.7,53.5,29.99,West,265,3.0,4.0,80,0.00,,---,0.00,378.00,VWS V14.00,2013-07-28 12:59:00,
2013-07-28 09:04:00,60.2,54.7,29.99,NW,309,0.0,0.0,82,0.00,,---,0.00,396.00,VWS V14.00,2013-07-28 13:04:00,
2013-07-28 09:09:00,60.6,54.4,29.99,NW,307,5.0,5.0,80,0.00,,---,0.00,411.00,VWS V14.00,2013-07-28 13:09:00,
2013-07-28 09:14:00,60.8,53.9,29.99,NW,304,4.0,6.0,78,0.00,,---,0.00,431.00,VWS V14.00,2013-07-28 13:14:00,
2013-07-28 09:19:00,61.0,53.4,29.99,NW,325,3.0,10.0,76,0.00,,---,0.00,445.00,VWS V14.00,2013-07-28 13:19:00,
2013-07-28 09:24:00,61.2,53.6,29.99,WNW,296,4.0,5.0,76,0.00,,---,0.00,461.00,VWS V14.00,2013-07-28 13:24:00,
2013-07-28 09:30:00,61.4,53.4,29.99,WNW,299,1.0,5.0,75,0.00,,---,0.00,478.00,VWS V14.00,2013-07-28 13:30:00,
2013-07-28 09:35:00,61.6,53.2,29.99,NW,311,4.0,7.0,74,0.00,,---,0.00,494.00,VWS V14.00,2013-07-28 13:35:00,
2013-07-28 09:40:00,61.9,53.5,29.98,NW,317,5.0,5.0,74,0.00,,---,0.00,510.00,VWS V14.00,2013-07-28 13:40:00,
2013-07-28 09:45:00,62.2,53.8,29.98,NW,317,1.0,1.0,74,0.00,,---,0.00,527.00,VWS V14.00,2013-07-28 13:45:00,
2013-07-28 09:50:00,62.4,53.3,29.99,NW,326,2.0,5.0,72,0.00,,---,0.00,545.00,VWS V14.00,2013-07-28 13:50:00,
2013-07-28 09:55:00,62.7,53.2,29.98,SW,226,6.0,6.0,71,0.00,,---,0.00,557.00,VWS V14.00,2013-07-28 13:55:00,
2013-07-28 10:00:00,62.9,52.6,29.99,WNW,288,3.0,4.0,69,0.00,,---,0.00,573.00,VWS V14.00,2013-07-28 14:00:00,
2013-07-28 10:05:00,63.1,52.0,29.99,NW,315,7.0,8.0,67,0.00,,---,0.00,589.00,VWS V14.00,2013-07-28 14:05:00,
2013-07-28 10:10:00,63.1,52.0,29.99,NW,323,3.0,8.0,67,0.00,,---,0.00,605.00,VWS V14.00,2013-07-28 14:10:00,
2013-07-28 10:15:00,63.2,51.7,29.99,NW,315,4.0,6.0,66,0.00,,---,0.00,619.00,VWS V14.00,2013-07-28 14:15:00,
2013-07-28 10:20:00,63.5,52.4,29.99,West,273,0.0,5.0,67,0.00,,---,0.00,635.00,VWS V14.00,2013-07-28 14:20:00,
2013-07-28 10:25:00,63.7,52.1,29.99,West,270,5.0,5.0,66,0.00,,---,0.00,649.00,VWS V14.00,2013-07-28 14:25:00,
2013-07-28 10:30:00,63.9,52.3,29.99,NW,305,6.0,6.0,66,0.00,,---,0.00,663.00,VWS V14.00,2013-07-28 14:30:00,
2013-07-28 10:35:00,64.2,52.2,29.99,NW,310,5.0,8.0,65,0.00,,---,0.00,675.00,VWS V14.00,2013-07-28 14:35:00,
2013-07-28 10:40:00,64.6,52.6,29.99,WNW,292,6.0,7.0,65,0.00,,---,0.00,689.00,VWS V14.00,2013-07-28 14:40:00,
2013-07-28 10:45:00,64.6,52.2,29.99,NNW,331,4.0,6.0,64,0.00,,---,0.00,707.00,VWS V14.00,2013-07-28 14:45:00,
2013-07-28 10:50:00,64.7,52.3,29.99,NW,309,4.0,6.0,64,0.00,,---,0.00,719.00,VWS V14.00,2013-07-28 14:50:00,
2013-07-28 10:55:00,65.2,54.4,29.99,NW,326,6.0,9.0,68,0.00,,---,0.00,733.00,VWS V14.00,2013-07-28 14:55:00,
2013-07-28 11:00:00,65.4,53.3,30.00,NW,319,6.0,7.0,65,0.00,,---,0.00,761.00,VWS V14.00,2013-07-28 15:00:00,
2013-07-28 11:05:00,65.7,53.6,30.00,East,92,4.0,7.0,65,0.00,,---,0.00,761.00,VWS V14.00,2013-07-28 15:05:00,
2013-07-28 11:10:00,65.6,52.2,30.00,NW,315,2.0,2.0,62,0.00,,---,0.00,772.00,VWS V14.00,2013-07-28 15:10:00,
2013-07-28 11:15:00,65.6,52.2,30.00,NW,316,4.0,7.0,62,0.00,,---,0.00,779.00,VWS V14.00,2013-07-28 15:15:00,
2013-07-28 11:20:00,65.6,52.7,30.00,WNW,297,7.0,10.0,63,0.00,,---,0.00,714.00,VWS V14.00,2013-07-28 15:20:00,
2013-07-28 11:25:00,65.8,52.9,30.00,NNW,336,5.0,5.0,63,0.00,,---,0.00,884.00,VWS V14.00,2013-07-28 15:25:00,
2013-07-28 11:30:00,66.1,52.7,30.00,WNW,293,7.0,9.0,62,0.00,,---,0.00,898.00,VWS V14.00,2013-07-28 15:30:00,
2013-07-28 11:35:00,65.9,53.0,30.00,WNW,292,11.0,11.0,63,0.00,,---,0.00,870.00,VWS V14.00,2013-07-28 15:35:00,
2013-07-28 11:40:00,66.1,54.4,30.00,WNW,298,6.0,10.0,66,0.00,,---,0.00,863.00,VWS V14.00,2013-07-28 15:40:00,
2013-07-28 11:45:00,66.3,52.9,30.00,NW,325,6.0,7.0,62,0.00,,---,0.00,888.00,VWS V14.00,2013-07-28 15:45:00,
2013-07-28 11:50:00,66.2,52.8,30.00,NW,321,9.0,9.0,62,0.00,,---,0.00,234.00,VWS V14.00,2013-07-28 15:50:00,
2013-07-28 11:55:00,66.1,53.2,30.01,NW,315,2.0,8.0,63,0.00,,---,0.00,946.00,VWS V14.00,2013-07-28 15:55:00,
2013-07-28 12:00:00,66.6,53.6,30.01,WNW,289,4.0,5.0,63,0.00,,---,0.00,976.00,VWS V14.00,2013-07-28 16:00:00,
2013-07-28 12:05:00,67.0,54.0,30.00,West,273,4.0,7.0,63,0.00,,---,0.00,983.00,VWS V14.00,2013-07-28 16:05:00,
2013-07-28 12:10:00,67.6,55.0,30.01,NW,306,9.0,10.0,64,0.00,,---,0.00,963.00,VWS V14.00,2013-07-28 16:10:00,
2013-07-28 12:15:00,67.7,55.1,30.00,NW,323,0.0,1.0,64,0.00,,---,0.00,817.00,VWS V14.00,2013-07-28 16:15:00,
2013-07-28 12:20:00,67.8,53.4,30.01,SW,227,10.0,10.0,60,0.00,,---,0.00,171.00,VWS V14.00,2013-07-28 16:20:00,
2013-07-28 12:25:00,67.4,53.9,30.01,SW,229,1.0,8.0,62,0.00,,---,0.00,990.00,VWS V14.00,2013-07-28 16:25:00,
2013-07-28 12:30:00,67.4,53.9,30.01,NW,317,0.0,6.0,62,0.00,,---,0.00,1100.00,VWS V14.00,2013-07-28 16:30:00,
2013-07-28 12:35:00,67.7,53.8,30.01,NW,315,8.0,10.0,61,0.00,,---,0.00,1062.00,VWS V14.00,2013-07-28 16:35:00,
2013-07-28 12:40:00,67.7,54.2,30.00,NW,311,8.0,9.0,62,0.00,,---,0.00,1044.00,VWS V14.00,2013-07-28 16:40:00,
2013-07-28 12:45:00,68.3,54.8,30.01,WSW,255,1.0,7.0,62,0.00,,---,0.00,1130.00,VWS V14.00,2013-07-28 16:45:00,
2013-07-28 12:50:00,68.4,54.0,30.00,NW,304,8.0,8.0,60,0.00,,---,0.00,214.00,VWS V14.00,2013-07-28 16:50:00,
2013-07-28 12:55:00,68.4,54.9,30.01,West,261,6.0,9.0,62,0.00,,---,0.00,1109.00,VWS V14.00,2013-07-28 16:55:00,
2013-07-28 13:00:00,68.3,53.4,30.00,WNW,293,8.0,8.0,59,0.00,,---,0.00,643.00,VWS V14.00,2013-07-28 17:00:00,
2013-07-28 13:05:00,68.2,54.7,30.00,WNW,285,2.0,5.0,62,0.00,,---,0.00,192.00,VWS V14.00,2013-07-28 17:05:00,
2013-07-28 13:10:00,68.4,53.5,30.00,NNW,345,8.0,9.0,59,0.00,,---,0.00,733.00,VWS V14.00,2013-07-28 17:10:00,
2013-07-28 13:15:00,68.3,53.0,30.00,NNW,337,2.0,6.0,58,0.00,,---,0.00,914.00,VWS V14.00,2013-07-28 17:15:00,
2013-07-28 13:20:00,68.4,53.5,30.00,NW,323,1.0,13.0,59,0.00,,---,0.00,1002.00,VWS V14.00,2013-07-28 17:20:00,
2013-07-28 13:25:00,68.7,54.3,30.00,West,267,9.0,14.0,60,0.00,,---,0.00,1014.00,VWS V14.00,2013-07-28 17:25:00,
2013-07-28 13:30:00,68.5,53.6,30.00,WNW,298,0.0,5.0,59,0.00,,---,0.00,1011.00,VWS V14.00,2013-07-28 17:30:00,
2013-07-28 13:35:00,68.9,53.5,30.00,NW,311,6.0,8.0,58,0.00,,---,0.00,135.00,VWS V14.00,2013-07-28 17:35:00,
2013-07-28 13:44:00,68.6,54.6,29.99,WNW,294,8.0,15.0,61,0.00,,---,0.00,1013.00,VWS V14.00,2013-07-28 17:44:00,
2013-07-28 13:49:00,68.8,53.9,29.99,SSW,193,8.0,10.0,59,0.00,,---,0.00,1053.00,VWS V14.00,2013-07-28 17:49:00,
2013-07-28 13:54:00,69.5,54.1,29.99,South,190,4.0,9.0,58,0.00,,---,0.00,974.00,VWS V14.00,2013-07-28 17:54:00,
2013-07-28 14:00:00,69.8,54.4,29.99,WSW,246,1.0,8.0,58,0.00,,---,0.00,311.00,VWS V14.00,2013-07-28 18:00:00,
2013-07-28 14:05:00,69.6,53.7,29.99,SW,231,1.0,9.0,57,0.00,,---,0.00,1090.00,VWS V14.00,2013-07-28 18:05:00,
2013-07-28 14:10:00,69.6,54.2,29.99,NW,308,8.0,12.0,58,0.00,,---,0.00,1062.00,VWS V14.00,2013-07-28 18:10:00,
2013-07-28 14:15:00,69.4,54.9,29.99,NW,316,6.0,6.0,60,0.00,,---,0.00,1204.00,VWS V14.00,2013-07-28 18:15:00,
2013-07-28 14:20:00,69.7,53.8,29.99,WNW,302,10.0,12.0,57,0.00,,---,0.00,1141.00,VWS V14.00,2013-07-28 18:20:00,
2013-07-28 14:25:00,69.8,54.4,29.99,NW,324,8.0,8.0,58,0.00,,---,0.00,1042.00,VWS V14.00,2013-07-28 18:25:00,
2013-07-28 14:30:00,70.1,55.1,29.99,WSW,246,10.0,13.0,59,0.00,,---,0.00,1034.00,VWS V14.00,2013-07-28 18:30:00,
2013-07-28 14:35:00,70.0,54.6,29.99,WNW,296,2.0,9.0,58,0.00,,---,0.00,1028.00,VWS V14.00,2013-07-28 18:35:00,
2013-07-28 14:40:00,70.1,54.2,29.99,WSW,253,10.0,11.0,57,0.00,,---,0.00,1083.00,VWS V14.00,2013-07-28 18:40:00,
2013-07-28 14:45:00,70.4,54.9,29.99,WNW,298,9.0,13.0,58,0.00,,---,0.00,1048.00,VWS V14.00,2013-07-28 18:45:00,
2013-07-28 14:50:00,70.4,53.5,29.99,SW,223,10.0,10.0,55,0.00,,---,0.00,1013.00,VWS V14.00,2013-07-28 18:50:00,
2013-07-28 14:55:00,70.5,54.5,29.99,NW,323,10.0,11.0,57,0.00,,---,0.00,1004.00,VWS V14.00,2013-07-28 18:55:00,
2013-07-28 15:00:00,70.5,54.5,29.99,WNW,294,6.0,7.0,57,0.00,,---,0.00,974.00,VWS V14.00,2013-07-28 19:00:00,
2013-07-28 15:05:00,70.6,54.2,29.99,WNW,290,6.0,12.0,56,0.00,,---,0.00,979.00,VWS V14.00,2013-07-28 19:05:00,
2013-07-28 15:10:00,70.6,54.2,29.99,WNW,286,8.0,8.0,56,0.00,,---,0.00,1027.00,VWS V14.00,2013-07-28 19:10:00,
2013-07-28 15:15:00,70.7,54.2,29.99,West,277,5.0,5.0,56,0.00,,---,0.00,225.00,VWS V14.00,2013-07-28 19:15:00,
2013-07-28 15:20:00,70.7,53.8,29.98,NW,321,7.0,9.0,55,0.00,,---,0.00,1056.00,VWS V14.00,2013-07-28 19:20:00,
2013-07-28 15:25:00,70.6,54.6,29.99,West,272,3.0,6.0,57,0.00,,---,0.00,234.00,VWS V14.00,2013-07-28 19:25:00,
2013-07-28 15:30:00,70.8,54.8,29.99,WSW,244,4.0,8.0,57,0.00,,---,0.00,237.00,VWS V14.00,2013-07-28 19:30:00,
2013-07-28 15:35:00,71.1,54.1,29.98,NW,308,4.0,7.0,55,0.00,,---,0.00,951.00,VWS V14.00,2013-07-28 19:35:00,
2013-07-28 15:44:00,71.6,54.1,29.98,SSW,200,6.0,8.0,54,0.00,,---,0.00,942.00,VWS V14.00,2013-07-28 19:44:00,
2013-07-28 15:49:00,72.3,55.2,29.98,SSW,193,7.0,9.0,55,0.00,,---,0.00,921.00,VWS V14.00,2013-07-28 19:49:00,
2013-07-28 15:54:00,72.6,54.5,29.97,NNW,331,8.0,9.0,53,0.00,,---,0.00,919.00,VWS V14.00,2013-07-28 19:54:00,
2013-07-28 15:59:00,72.3,55.2,29.97,WNW,294,8.0,11.0,55,0.00,,---,0.00,916.00,VWS V14.00,2013-07-28 19:59:00,
2013-07-28 16:04:00,72.3,55.2,29.97,NW,307,6.0,9.0,55,0.00,,---,0.00,911.00,VWS V14.00,2013-07-28 20:04:00,
2013-07-28 16:09:00,72.3,54.7,29.97,WSW,258,6.0,15.0,54,0.00,,---,0.00,902.00,VWS V14.00,2013-07-28 20:09:00,
2013-07-28 16:14:00,72.8,55.2,29.98,SSW,210,4.0,10.0,54,0.00,,---,0.00,932.00,VWS V14.00,2013-07-28 20:14:00,
2013-07-28 16:19:00,73.0,54.4,29.98,WNW,288,5.0,10.0,52,0.00,,---,0.00,176.00,VWS V14.00,2013-07-28 20:19:00,
2013-07-28 16:24:00,72.5,54.4,29.98,WSW,251,4.0,8.0,53,0.00,,---,0.00,1016.00,VWS V14.00,2013-07-28 20:24:00,
2013-07-28 16:30:00,72.8,53.6,29.98,NNW,342,4.0,11.0,51,0.00,,---,0.00,879.00,VWS V14.00,2013-07-28 20:30:00,
2013-07-28 16:35:00,72.6,55.0,29.98,West,281,2.0,9.0,54,0.00,,---,0.00,868.00,VWS V14.00,2013-07-28 20:35:00,
2013-07-28 16:40:00,72.8,54.7,29.98,WNW,282,2.0,13.0,53,0.00,,---,0.00,870.00,VWS V14.00,2013-07-28 20:40:00,
2013-07-28 16:45:00,72.9,55.3,29.98,NW,306,5.0,8.0,54,0.00,,---,0.00,838.00,VWS V14.00,2013-07-28 20:45:00,
2013-07-28 16:50:00,72.6,55.0,29.98,NW,321,6.0,9.0,54,0.00,,---,0.00,195.00,VWS V14.00,2013-07-28 20:50:00,
2013-07-28 16:55:00,72.5,55.4,29.98,SW,227,10.0,10.0,55,0.00,,---,0.00,831.00,VWS V14.00,2013-07-28 20:55:00,
2013-07-28 17:00:00,72.9,55.3,29.99,NW,311,7.0,10.0,54,0.00,,---,0.00,838.00,VWS V14.00,2013-07-28 21:00:00,
2013-07-28 17:05:00,72.6,54.0,29.99,WNW,298,4.0,8.0,52,0.00,,---,0.00,258.00,VWS V14.00,2013-07-28 21:05:00,
2013-07-28 17:10:00,72.1,55.6,29.99,West,274,2.0,7.0,56,0.00,,---,0.00,227.00,VWS V14.00,2013-07-28 21:10:00,
2013-07-28 17:16:00,71.7,53.7,29.99,West,271,5.0,9.0,53,0.00,,---,0.00,237.00,VWS V14.00,2013-07-28 21:16:00,
2013-07-28 17:21:00,71.2,54.2,29.99,NW,322,1.0,8.0,55,0.00,,---,0.00,320.00,VWS V14.00,2013-07-28 21:21:00,
2013-07-28 17:26:00,71.5,54.0,29.99,West,271,6.0,12.0,54,0.00,,---,0.00,362.00,VWS V14.00,2013-07-28 21:26:00,
2013-07-28 17:31:00,71.9,54.9,29.99,West,270,2.0,6.0,55,0.00,,---,0.00,550.00,VWS V14.00,2013-07-28 21:31:00,
2013-07-28 17:36:00,72.6,55.0,29.99,NW,306,10.0,14.0,54,0.00,,---,0.00,875.00,VWS V14.00,2013-07-28 21:36:00,
2013-07-28 17:41:00,72.4,54.8,29.99,NW,321,9.0,12.0,54,0.00,,---,0.00,257.00,VWS V14.00,2013-07-28 21:41:00,
2013-07-28 17:46:00,71.8,54.8,29.99,SW,219,5.0,11.0,55,0.00,,---,0.00,278.00,VWS V14.00,2013-07-28 21:46:00,
2013-07-28 17:51:00,71.7,55.2,29.99,West,263,5.0,6.0,56,0.00,,---,0.00,309.00,VWS V14.00,2013-07-28 21:51:00,
2013-07-28 17:56:00,72.0,55.0,29.99,WNW,297,8.0,9.0,55,0.00,,---,0.00,288.00,VWS V14.00,2013-07-28 21:56:00,
2013-07-28 18:01:00,71.7,55.7,29.99,WNW,299,4.0,7.0,57,0.00,,---,0.00,318.00,VWS V14.00,2013-07-28 22:01:00,
2013-07-28 18:06:00,72.0,55.5,29.99,West,280,5.0,9.0,56,0.00,,---,0.00,652.00,VWS V14.00,2013-07-28 22:06:00,
2013-07-28 18:11:00,72.5,55.9,29.99,NW,313,6.0,9.0,56,0.00,,---,0.00,575.00,VWS V14.00,2013-07-28 22:11:00,
2013-07-28 18:16:00,72.6,56.0,29.99,NW,321,4.0,8.0,56,0.00,,---,0.00,575.00,VWS V14.00,2013-07-28 22:16:00,
2013-07-28 18:21:00,72.3,54.7,29.99,West,279,6.0,7.0,54,0.00,,---,0.00,156.00,VWS V14.00,2013-07-28 22:21:00,
2013-07-28 18:26:00,71.8,54.8,29.99,WNW,298,6.0,9.0,55,0.00,,---,0.00,195.00,VWS V14.00,2013-07-28 22:26:00,
2013-07-28 18:31:00,71.3,54.3,29.99,WSW,257,4.0,9.0,55,0.00,,---,0.00,313.00,VWS V14.00,2013-07-28 22:31:00,
2013-07-28 18:36:00,71.3,54.8,29.99,WNW,288,7.0,8.0,56,0.00,,---,0.00,490.00,VWS V14.00,2013-07-28 22:36:00,
2013-07-28 18:41:00,71.6,55.1,29.99,NW,309,9.0,9.0,56,0.00,,---,0.00,531.00,VWS V14.00,2013-07-28 22:41:00,
2013-07-28 18:46:00,71.9,54.9,29.99,WSW,250,6.0,8.0,55,0.00,,---,0.00,253.00,VWS V14.00,2013-07-28 22:46:00,
2013-07-28 18:51:00,72.2,56.1,29.99,NW,310,8.0,8.0,57,0.00,,---,0.00,452.00,VWS V14.00,2013-07-28 22:51:00,
2013-07-28 18:56:00,72.1,56.0,30.00,WNW,300,4.0,7.0,57,0.00,,---,0.00,139.00,VWS V14.00,2013-07-28 22:56:00,
2013-07-28 19:01:00,71.6,56.1,30.00,WNW,295,4.0,7.0,58,0.00,,---,0.00,420.00,VWS V14.00,2013-07-28 23:01:00,
2013-07-28 19:06:00,71.6,55.6,30.00,WNW,296,2.0,10.0,57,0.00,,---,0.00,320.00,VWS V14.00,2013-07-28 23:06:00,
2013-07-28 19:11:00,71.9,54.9,30.00,WSW,244,1.0,6.0,55,0.00,,---,0.00,329.00,VWS V14.00,2013-07-28 23:11:00,
2013-07-28 19:16:00,72.1,55.6,30.00,West,274,4.0,6.0,56,0.00,,---,0.00,302.00,VWS V14.00,2013-07-28 23:16:00,
2013-07-28 19:21:00,72.3,56.7,30.00,NW,306,3.0,5.0,58,0.00,,---,0.00,269.00,VWS V14.00,2013-07-28 23:21:00,
2013-07-28 19:28:00,72.0,55.5,30.01,NW,315,5.0,9.0,56,0.00,,---,0.00,237.00,VWS V14.00,2013-07-28 23:28:00,
2013-07-28 19:33:00,71.4,55.4,30.01,WNW,286,2.0,8.0,57,0.00,,---,0.00,51.00,VWS V14.00,2013-07-28 23:33:00,
2013-07-28 19:38:00,70.9,54.9,30.01,NW,309,4.0,6.0,57,0.00,,---,0.00,192.00,VWS V14.00,2013-07-28 23:38:00,
2013-07-28 19:43:00,70.7,55.7,30.01,WNW,295,4.0,9.0,59,0.00,,---,0.00,172.00,VWS V14.00,2013-07-28 23:43:00,
2013-07-28 19:48:00,70.7,55.2,30.01,WNW,298,5.0,10.0,58,0.00,,---,0.00,97.00,VWS V14.00,2013-07-28 23:48:00,
2013-07-28 19:53:00,70.6,55.1,30.01,NW,309,6.0,7.0,58,0.00,,---,0.00,125.00,VWS V14.00,2013-07-28 23:53:00,
2013-07-28 19:58:00,70.5,56.0,30.01,WNW,296,2.0,8.0,60,0.00,,---,0.00,40.00,VWS V14.00,2013-07-28 23:58:00,
2013-07-28 20:03:00,70.2,55.7,30.01,WNW,293,0.0,7.0,60,0.00,,---,0.00,37.00,VWS V14.00,2013-07-29 00:03:00,
2013-07-28 20:09:00,69.8,55.3,30.01,West,273,1.0,8.0,60,0.00,,---,0.00,25.00,VWS V14.00,2013-07-29 00:09:00,
2013-07-28 20:14:00,69.4,54.5,30.01,West,265,2.0,12.0,59,0.00,,---,0.00,30.00,VWS V14.00,2013-07-29 00:14:00,
2013-07-28 20:19:00,69.2,55.2,30.01,NW,306,2.0,6.0,61,0.00,,---,0.00,26.00,VWS V14.00,2013-07-29 00:19:00,
2013-07-28 20:24:00,68.9,55.4,30.02,WNW,302,0.0,2.0,62,0.00,,---,0.00,26.00,VWS V14.00,2013-07-29 00:24:00,
2013-07-28 20:29:00,68.7,55.6,30.02,NW,304,4.0,5.0,63,0.00,,---,0.00,19.00,VWS V14.00,2013-07-29 00:29:00,
2013-07-28 20:34:00,68.4,55.8,30.02,NW,308,0.0,4.0,64,0.00,,---,0.00,16.00,VWS V14.00,2013-07-29 00:34:00,
2013-07-28 20:39:00,68.2,55.6,30.02,NW,308,0.0,0.0,64,0.00,,---,0.00,11.00,VWS V14.00,2013-07-29 00:39:00,
2013-07-28 20:44:00,68.0,55.8,30.02,NW,308,0.0,0.0,65,0.00,,---,0.00,7.00,VWS V14.00,2013-07-29 00:44:00,
2013-07-28 20:49:00,67.7,55.5,30.02,NW,308,0.0,0.0,65,0.00,,---,0.00,5.00,VWS V14.00,2013-07-29 00:49:00,
2013-07-28 20:54:00,67.6,55.8,30.02,NW,308,0.0,0.0,66,0.00,,---,0.00,0.00,VWS V14.00,2013-07-29 00:54:00,
2013-07-28 20:59:00,67.4,55.7,30.02,NW,308,0.0,0.0,66,0.00,,---,0.00,0.00,VWS V14.00,2013-07-29 00:59:00,
2013-07-28 21:04:00,67.2,55.9,30.03,NW,308,0.0,0.0,67,0.00,,---,0.00,0.00,VWS V14.00,2013-07-29 01:04:00,
2013-07-28 21:09:00,67.1,55.8,30.03,NW,308,0.0,0.0,67,0.00,,---,0.00,0.00,VWS V14.00,2013-07-29 01:09:00,
2013-07-28 21:14:00,66.9,56.0,30.03,NW,308,0.0,0.0,68,0.00,,---,0.00,0.00,VWS V14.00,2013-07-29 01:14:00,
2013-07-28 21:19:00,66.8,55.9,30.03,NW,308,0.0,0.0,68,0.00,,---,0.00,0.00,VWS V14.00,2013-07-29 01:19:00,
2013-07-28 21:29:00,66.5,56.8,30.03,NW,308,0.0,0.0,71,0.00,,---,0.00,0.00,VWS V14.00,2013-07-29 01:29:00,
2013-07-28 21:34:00,66.3,55.8,30.03,NW,308,0.0,0.0,69,0.00,,---,0.00,0.00,VWS V14.00,2013-07-29 01:34:00,
2013-07-28 21:39:00,66.1,56.0,30.03,NW,308,0.0,0.0,70,0.00,,---,0.00,0.00,VWS V14.00,2013-07-29 01:39:00,
2013-07-28 21:44:00,65.9,56.6,30.03,NW,308,0.0,0.0,72,0.00,,---,0.00,0.00,VWS V14.00,2013-07-29 01:44:00,
2013-07-28 21:49:00,65.9,56.2,30.04,NW,306,0.0,2.0,71,0.00,,---,0.00,0.00,VWS V14.00,2013-07-29 01:49:00,
2013-07-28 21:54:00,65.9,55.8,30.03,WNW,300,2.0,2.0,70,0.00,,---,0.00,0.00,VWS V14.00,2013-07-29 01:54:00,
2013-07-28 21:59:00,65.9,55.8,30.03,WNW,298,0.0,2.0,70,0.00,,---,0.00,0.00,VWS V14.00,2013-07-29 01:59:00,
2013-07-28 22:04:00,65.9,56.6,30.04,WNW,298,0.0,0.0,72,0.00,,---,0.00,0.00,VWS V14.00,2013-07-29 02:04:00,
2013-07-28 22:14:00,65.8,56.2,30.04,WNW,301,0.0,0.0,71,0.00,,---,0.00,0.00,VWS V14.00,2013-07-29 02:14:00,
2013-07-28 22:19:00,65.5,55.9,30.04,WNW,301,0.0,0.0,71,0.00,,---,0.00,0.00,VWS V14.00,2013-07-29 02:19:00,
2013-07-28 22:24:00,65.2,56.3,30.04,WNW,301,0.0,0.0,73,0.00,,---,0.00,0.00,VWS V14.00,2013-07-29 02:24:00,
2013-07-28 22:29:00,65.0,56.2,30.04,WNW,301,0.0,0.0,73,0.00,,---,0.00,0.00,VWS V14.00,2013-07-29 02:29:00,
2013-07-28 22:34:00,64.8,56.3,30.04,WNW,301,0.0,0.0,74,0.00,,---,0.00,0.00,VWS V14.00,2013-07-29 02:34:00,
2013-07-28 22:39:00,64.5,56.0,30.04,West,275,0.0,1.0,74,0.00,,---,0.00,0.00,VWS V14.00,2013-07-29 02:39:00,
2013-07-28 22:44:00,64.5,56.0,30.04,West,275,0.0,0.0,74,0.00,,---,0.00,0.00,VWS V14.00,2013-07-29 02:44:00,
2013-07-28 22:49:00,64.5,56.0,30.04,West,277,0.0,0.0,74,0.00,,---,0.00,0.00,VWS V14.00,2013-07-29 02:49:00,
2013-07-28 22:54:00,64.6,55.8,30.04,West,279,4.0,4.0,73,0.00,,---,0.00,0.00,VWS V14.00,2013-07-29 02:54:00,
2013-07-28 22:59:00,64.6,55.8,30.04,West,279,1.0,2.0,73,0.00,,---,0.00,0.00,VWS V14.00,2013-07-29 02:59:00,
2013-07-28 23:04:00,64.3,56.2,30.04,West,279,0.0,2.0,75,0.00,,---,0.00,0.00,VWS V14.00,2013-07-29 03:04:00,
2013-07-28 23:09:00,64.0,55.6,30.04,NW,312,4.0,4.0,74,0.00,,---,0.00,0.00,VWS V14.00,2013-07-29 03:09:00,
2013-07-28 23:19:00,64.0,55.6,30.04,NW,325,5.0,5.0,74,0.00,,---,0.00,0.00,VWS V14.00,2013-07-29 03:19:00,
2013-07-28 23:24:00,64.1,55.3,30.04,NW,323,5.0,7.0,73,0.00,,---,0.00,0.00,VWS V14.00,2013-07-29 03:24:00,
2013-07-28 23:29:00,64.3,55.5,30.04,NW,325,5.0,6.0,73,0.00,,---,0.00,0.00,VWS V14.00,2013-07-29 03:29:00,
2013-07-28 23:34:00,64.5,55.3,30.04,NNW,327,4.0,6.0,72,0.00,,---,0.00,0.00,VWS V14.00,2013-07-29 03:34:00,
2013-07-28 23:39:00,64.5,55.3,30.04,NW,311,2.0,2.0,72,0.00,,---,0.00,0.00,VWS V14.00,2013-07-29 03:39:00,
2013-07-28 23:44:00,64.3,55.1,30.04,NW,311,0.0,1.0,72,0.00,,---,0.00,0.00,VWS V14.00,2013-07-29 03:44:00,
2013-07-28 23:49:00,64.2,55.0,30.04,WNW,303,0.0,0.0,72,0.00,,---,0.00,0.00,VWS V14.00,2013-07-29 03:49:00,
2013-07-28 23:54:00,64.0,54.8,30.04,WNW,303,0.0,1.0,72,0.00,,---,0.00,0.00,VWS V14.00,2013-07-29 03:54:00,
2013-07-28 23:59:00,63.9,54.7,30.04,NW,313,2.0,2.0,72,0.00,,---,0.00,0.00,VWS V14.00,2013-07-29 03:59:00,